Wind_Speed
6 4 12 20 13 5 4 5 5 2 5 3 7 6 11 19 20 14 21 23 26 27 26 29 33 36 43 46 48 47 46 45 43 41 43 44 44 43 42 41 41 41 40 40
4 17 21 9 8 6 6 6 7 4 6 1 6 10 10 9 12 22 26 27 28 30 31 26 29 32 40 39 40 47 46 48 45 43 41 43 43 43 42 42 42 42 42 41
16 24 11 12 6 8 13 14 13 11 3 5 3 12 5 10 14 23 30 33 33 30 31 27 28 26 29 32 35 36 32 36 38 35 38 40 42 43 44 45 43 43 41 40
10 17 13 21 18 15 19 8 8 6 4 7 4 13 8 7 15 9 23 29 32 24 24 28 28 25 27 29 29 30 33 35 36 36 38 38 36 40 41 43 43 43 41 39
12 12 20 23 19 14 13 7 9 7 7 1 9 4 8 7 11 17 8 24 28 25 22 29 31 30 29 29 32 34 34 37 39 39 40 41 42 40 42 41 38 38 38 36
10 7 10 24 17 11 5 7 7 4 5 9 20 11 24 13 11 6 5 20 29 27 22 23 27 28 28 23 24 26 34 43 43 42 41 42 43 41 38 38 37 36 34 32
13 20 9 8 15 16 7 6 4 6 5 11 15 11 25 5 4 10 11 24 28 24 24 26 23 23 24 24 25 26 30 39 45 45 44 42 43 39 34 34 35 33 32 30
12 11 15 7 12 10 19 15 5 11 12 17 8 10 19 19 30 28 29 22 18 25 29 29 24 24 28 28 28 29 28 34 43 43 39 39 38 34 32 29 30 31 30 27
5 10 4 12 12 13 8 17 22 7 4 3 7 6 10 4 9 9 18 26 35 31 25 28 25 25 32 37 36 32 31 35 39 39 35 33 33 33 29 26 26 27 26 24
7 12 7 10 16 18 20 9 10 11 19 21 5 5 9 9 14 9 8 15 24 23 24 23 28 32 41 36 35 34 29 30 33 35 30 30 31 28 27 25 26 25 23 22
1 5 7 3 11 16 13 17 12 5 15 17 20 18 6 8 7 10 11 24 17 21 22 20 26 35 35 27 27 29 28 31 33 30 30 31 29 27 26 24 23 21 21 21
6 2 9 17 15 6 11 23 24 15 12 9 19 18 3 8 8 6 15 19 22 19 19 21 24 30 23 24 26 30 32 32 33 33 32 29 28 27 25 22 21 20 21 21
2 5 5 7 11 15 12 12 7 17 17 20 12 14 19 24 23 19 12 33 30 17 21 34 31 29 23 20 25 33 35 36 34 33 31 29 29 26 23 21 19 19 19 20
10 3 8 8 6 4 8 13 20 13 12 17 21 18 21 8 7 10 21 25 31 31 32 30 24 25 20 17 22 33 35 35 35 33 30 28 26 24 21 19 19 18 18 17
11 5 6 13 14 14 14 20 16 9 21 15 13 12 24 12 10 10 21 30 29 29 31 34 24 24 22 17 20 31 33 35 35 33 30 27 26 24 23 21 20 19 18 16
2 3 4 15 10 9 14 15 14 13 12 4 8 11 19 16 14 12 18 23 26 31 29 32 33 29 22 20 23 31 37 39 37 34 32 29 29 26 24 23 22 20 18 16
2 3 2 14 5 7 7 11 11 4 5 14 7 8 15 21 12 10 18 23 28 34 33 30 26 25 31 28 24 31 40 40 39 38 36 33 33 29 27 24 21 19 16 14
10 10 6 11 3 14 9 11 15 17 15 21 17 24 22 21 22 25 31 30 30 33 37 40 36 31 27 30 33 33 35 49 46 43 40 36 34 30 29 24 22 20 18 13
19 13 6 6 10 13 7 2 6 8 15 16 13 16 21 32 25 17 24 27 28 24 27 32 32 34 35 32 32 34 39 40 48 48 44 39 37 35 31 27 25 22 19 17
17 16 10 1 8 10 16 12 24 6 16 9 19 22 20 21 9 13 10 17 25 21 25 34 36 31 27 31 31 33 36 39 39 48 47 46 46 39 34 31 28 23 22 18
5 7 16 13 11 7 9 8 15 12 16 26 29 28 25 16 20 37 18 21 27 34 37 35 33 31 30 29 37 33 33 36 34 37 47 50 48 42 37 32 28 26 24 22
10 7 6 7 8 11 17 7 13 20 35 33 24 36 35 39 41 37 38 34 35 34 36 36 33 35 35 31 37 34 29 25 35 39 41 45 46 43 37 33 32 29 27 24
10 13 4 8 7 9 22 19 26 32 30 34 27 34 36 33 34 40 45 39 33 35 42 39 39 42 43 36 35 36 41 35 34 37 39 40 43 39 37 36 36 33 30 27
4 3 4 4 16 21 34 29 25 24 31 39 31 33 38 41 43 39 42 40 35 39 38 38 40 46 45 43 36 36 36 35 35 38 39 41 40 40 42 41 36 32 33 37
5 3 3 8 19 13 31 34 25 16 22 28 30 31 36 36 39 41 39 43 37 34 36 38 42 45 47 47 40 37 38 38 37 38 38 37 39 43 43 39 38 37 37 36
5 6 4 7 4 5 24 29 43 40 36 36 28 29 36 40 44 48 46 45 39 37 37 40 44 46 43 42 43 39 37 37 38 38 37 43 46 44 42 40 34 30 32 29
Wind_Direction
182 153 213 214 207 214 139 180 217 246 264 283 244 246 263 265 268 241 245 259 269 267 272 265 256 252 248 243 243 245 246 249 248 243 240 240 241 239 239 240 241 241 240 241
201 226 224 219 191 215 230 228 240 267 264 206 292 269 249 258 253 253 254 252 252 264 272 257 254 253 251 240 239 244 247 245 249 249 246 241 241 242 243 243 243 243 243 243
207 229 212 213 187 201 230 231 239 242 348 273 335 286 230 255 250 256 256 258 259 259 265 246 249 245 231 238 240 240 240 238 240 242 240 237 238 242 243 243 243 244 245 246
230 235 240 221 224 202 235 201 233 192 158 249 131 276 236 230 256 224 237 247 249 250 268 235 237 239 223 232 240 242 238 236 234 236 239 238 239 237 240 242 244 245 246 245
219 208 217 234 229 208 244 192 200 186 206 70 256 309 266 166 240 252 224 240 243 253 264 232 226 236 233 238 245 246 243 236 235 236 238 239 237 242 245 248 250 250 250 249
254 295 224 229 227 221 223 229 225 186 179 227 237 206 267 235 230 255 243 241 250 250 251 235 234 237 237 237 249 250 251 240 234 233 236 238 239 241 246 250 251 253 256 257
260 255 275 300 219 219 217 149 217 221 197 229 228 198 242 260 232 223 243 248 241 239 240 243 242 245 251 261 267 270 266 238 232 232 235 238 239 241 246 247 249 253 257 259
226 251 211 206 220 210 214 212 193 214 216 239 163 210 238 223 250 261 270 270 260 254 246 251 262 273 276 269 269 271 266 234 228 231 233 235 237 240 239 241 246 251 254 257
220 238 194 193 216 208 199 218 228 285 297 297 225 254 286 218 221 245 255 255 260 260 257 266 271 290 285 269 265 266 258 233 231 229 228 228 230 229 235 241 245 250 251 251
269 264 222 210 214 222 218 215 234 233 241 249 246 239 231 222 222 239 244 252 260 263 256 269 285 286 298 267 252 258 243 229 227 224 221 219 219 227 235 240 243 244 247 245
300 261 239 348 218 216 211 223 231 240 218 228 250 243 215 240 236 226 242 245 265 285 286 296 310 303 288 252 242 249 225 218 217 212 209 213 220 226 231 234 236 236 239 238
246 243 258 244 255 268 228 213 217 226 237 234 241 243 229 227 255 238 274 283 283 281 282 290 301 319 296 257 243 234 215 209 204 204 208 214 218 221 223 227 228 232 237 237
227 178 251 253 269 263 245 257 249 237 239 235 235 248 241 260 269 263 269 288 295 281 298 305 300 313 309 275 246 219 207 201 202 207 208 209 212 214 216 220 224 232 236 239
2 239 212 254 276 303 287 227 246 234 237 239 239 253 258 262 258 276 280 275 279 288 293 295 304 309 308 287 239 211 204 204 205 205 208 209 209 210 211 216 223 229 229 232
179 243 213 247 261 280 269 282 267 294 245 239 246 248 258 257 281 286 297 300 301 296 296 295 302 309 297 276 232 210 208 209 209 211 209 208 208 206 208 212 214 214 214 216
270 263 261 266 258 248 270 274 292 262 289 268 230 263 274 270 268 303 311 316 311 311 316 314 310 299 284 269 238 218 216 214 213 212 210 206 206 203 205 209 203 203 207 212
289 270 223 268 271 309 264 236 226 194 306 295 203 234 264 278 263 265 276 284 289 293 300 308 318 308 294 287 277 249 232 225 222 217 213 210 209 205 205 201 199 202 205 205
230 230 230 266 254 256 235 216 224 225 221 209 216 262 254 262 274 265 265 266 276 282 286 289 292 300 304 301 287 276 257 239 231 226 219 215 214 212 210 201 200 203 205 206
211 216 236 241 239 272 281 242 189 198 245 221 233 240 254 261 269 257 261 266 271 280 291 289 294 294 290 297 288 279 259 248 235 230 227 223 225 221 215 204 200 201 202 199
207 214 210 159 233 245 261 219 227 213 256 195 210 232 242 260 274 274 246 264 276 277 288 294 295 291 289 285 294 279 270 251 239 234 234 231 230 225 221 208 201 198 202 197
177 201 218 231 241 260 262 216 209 211 244 247 234 240 238 242 242 262 259 257 267 283 291 296 297 291 277 275 284 282 262 253 247 238 232 232 229 224 218 207 202 199 196 195
212 178 201 223 230 248 227 240 206 226 237 255 235 231 234 243 254 262 271 271 278 283 295 299 299 296 295 283 276 271 255 264 258 246 236 233 227 221 211 206 199 197 200 198
246 221 203 194 212 234 242 212 231 236 245 256 240 241 247 249 253 267 273 275 277 284 292 296 296 295 293 291 279 266 262 265 253 245 241 236 230 218 212 207 200 194 201 203
248 301 245 241 248 250 264 275 265 260 259 262 254 251 251 254 262 264 272 274 282 289 289 292 294 293 290 290 281 270 259 257 247 235 230 228 220 205 199 196 199 199 201 197
238 354 276 286 290 294 271 272 299 298 264 262 265 260 256 253 264 269 267 276 281 280 281 284 284 287 288 288 276 266 257 249 235 225 223 217 207 199 193 193 198 200 199 199
187 261 230 272 351 277 284 315 305 311 299 288 286 273 264 262 260 265 270 274 280 281 278 279 282 286 289 282 272 259 245 238 227 213 204 198 190 190 187 188 179 176 182 182
Height
1474 1482 1478 1471 1473 1475 1478 1485 1484 1483 1476 1477 1477 1478 1472 1468 1464 1465 1467 1467 1467 1468 1471 1473 1476 1477 1479 1485 1488 1491 1494 1497 1499 1501 1504 1507 1507 1511 1514 1518 1521 1524 1527 1530
1474 1469 1459 1471 1471 1477 1478 1481 1484 1481 1476 1479 1479 1476 1470 1464 1459 1458 1459 1460 1462 1463 1463 1464 1466 1468 1468 1472 1478 1481 1484 1487 1490 1493 1496 1499 1502 1505 1509 1511 1514 1517 1519 1523
1463 1445 1462 1464 1469 1477 1477 1477 1479 1482 1475 1473 1476 1471 1466 1456 1451 1449 1449 1450 1452 1454 1455 1456 1458 1459 1461 1464 1468 1472 1475 1478 1482 1485 1488 1492 1496 1499 1502 1503 1506 1508 1512 1516
1463 1455 1455 1456 1461 1466 1472 1469 1473 1478 1485 1490 1473 1477 1457 1452 1444 1442 1438 1441 1442 1445 1445 1447 1451 1454 1456 1459 1461 1464 1468 1471 1475 1478 1480 1483 1486 1488 1491 1494 1498 1501 1505 1509
1448 1448 1452 1455 1451 1460 1460 1464 1471 1473 1479 1482 1478 1494 1451 1445 1443 1431 1432 1435 1436 1437 1438 1438 1442 1446 1451 1455 1456 1458 1461 1464 1466 1469 1472 1475 1478 1482 1484 1488 1493 1495 1499 1503
1447 1446 1446 1441 1451 1454 1456 1462 1463 1468 1476 1485 1465 1483 1428 1439 1434 1429 1426 1427 1429 1430 1432 1432 1436 1440 1444 1447 1449 1451 1452 1453 1457 1460 1464 1467 1471 1475 1478 1482 1485 1488 1492 1496
1446 1443 1445 1445 1448 1452 1457 1462 1477 1479 1483 1467 1449 1474 1431 1421 1421 1419 1421 1421 1423 1424 1425 1427 1430 1434 1437 1439 1440 1440 1440 1441 1446 1451 1455 1459 1464 1470 1474 1476 1479 1482 1486 1489
1447 1446 1441 1439 1443 1447 1449 1453 1463 1468 1464 1449 1451 1457 1418 1411 1417 1417 1417 1418 1417 1419 1419 1420 1423 1427 1429 1430 1430 1431 1430 1431 1436 1442 1447 1452 1458 1463 1466 1470 1473 1476 1480 1484
1443 1438 1428 1430 1435 1444 1445 1452 1438 1455 1448 1456 1440 1430 1417 1410 1410 1410 1410 1411 1412 1415 1415 1416 1419 1418 1419 1419 1421 1422 1422 1424 1429 1435 1441 1446 1452 1455 1459 1463 1467 1470 1474 1477
1435 1438 1425 1425 1431 1433 1436 1437 1452 1451 1459 1459 1443 1437 1423 1411 1408 1406 1407 1407 1406 1409 1411 1412 1412 1410 1408 1406 1410 1413 1414 1418 1423 1429 1435 1440 1445 1449 1454 1457 1460 1463 1466 1469
1435 1438 1428 1428 1429 1427 1433 1436 1437 1436 1436 1446 1441 1424 1413 1408 1406 1406 1401 1399 1404 1404 1405 1406 1405 1403 1398 1396 1399 1404 1407 1411 1418 1424 1430 1435 1439 1443 1447 1450 1454 1457 1460 1463
1437 1441 1435 1429 1420 1420 1419 1419 1425 1434 1435 1430 1424 1413 1398 1401 1402 1403 1401 1398 1402 1402 1401 1401 1402 1399 1392 1391 1392 1396 1400 1406 1413 1419 1424 1429 1434 1438 1441 1445 1448 1451 1454 1457
1433 1440 1438 1426 1427 1418 1419 1415 1417 1415 1416 1418 1429 1417 1401 1397 1393 1395 1399 1396 1395 1398 1396 1397 1398 1394 1388 1387 1386 1390 1396 1402 1409 1414 1419 1423 1428 1432 1435 1439 1442 1446 1449 1452
1435 1436 1434 1432 1427 1433 1423 1414 1414 1413 1415 1412 1408 1410 1394 1398 1396 1394 1391 1394 1394 1394 1394 1392 1391 1389 1385 1383 1384 1388 1395 1400 1405 1410 1414 1418 1422 1425 1429 1432 1436 1439 1443 1446
1434 1431 1430 1425 1423 1423 1428 1419 1411 1417 1408 1410 1408 1404 1387 1394 1394 1393 1391 1388 1388 1387 1388 1388 1387 1386 1384 1382 1383 1389 1393 1398 1401 1405 1408 1411 1416 1419 1423 1426 1429 1432 1436 1439
1425 1426 1426 1422 1421 1421 1418 1415 1413 1411 1409 1405 1413 1412 1393 1388 1391 1389 1388 1388 1385 1381 1383 1384 1383 1383 1381 1382 1385 1387 1389 1392 1395 1399 1402 1406 1410 1413 1416 1421 1423 1425 1428 1431
1428 1426 1425 1417 1414 1416 1415 1407 1406 1417 1421 1412 1407 1404 1390 1380 1386 1385 1382 1383 1383 1381 1378 1378 1380 1380 1381 1381 1383 1383 1387 1389 1392 1394 1398 1402 1405 1406 1410 1413 1416 1420 1422 1423
1421 1422 1421 1412 1413 1413 1390 1391 1392 1393 1394 1394 1400 1403 1386 1377 1375 1376 1375 1376 1376 1376 1375 1374 1376 1376 1375 1374 1376 1377 1378 1380 1384 1387 1391 1396 1400 1402 1405 1406 1410 1415 1418 1418
1406 1413 1416 1410 1404 1389 1386 1384 1386 1388 1384 1385 1384 1386 1380 1367 1364 1363 1369 1371 1369 1369 1368 1367 1368 1368 1368 1368 1367 1368 1369 1368 1372 1377 1383 1389 1393 1396 1399 1400 1404 1408 1411 1414
1394 1401 1407 1421 1395 1392 1365 1371 1374 1377 1376 1372 1373 1370 1369 1363 1365 1357 1364 1365 1362 1361 1361 1359 1359 1358 1356 1358 1359 1358 1357 1360 1361 1366 1373 1379 1383 1388 1391 1394 1398 1401 1407 1409
1394 1394 1393 1393 1393 1380 1364 1364 1366 1383 1373 1348 1356 1356 1356 1359 1352 1345 1353 1354 1355 1353 1352 1352 1350 1350 1349 1350 1353 1351 1352 1353 1356 1359 1363 1367 1373 1379 1384 1389 1394 1396 1401 1404
1379 1390 1387 1382 1381 1377 1352 1359 1366 1349 1345 1345 1351 1350 1348 1344 1341 1344 1341 1343 1346 1344 1342 1342 1342 1340 1340 1342 1344 1345 1345 1348 1351 1353 1355 1358 1363 1369 1377 1384 1388 1394 1398 1401
1376 1368 1375 1370 1363 1348 1337 1339 1338 1343 1343 1338 1343 1344 1343 1340 1336 1335 1330 1333 1336 1335 1334 1332 1332 1330 1330 1331 1333 1335 1336 1340 1342 1343 1346 1351 1356 1364 1370 1375 1381 1386 1393 1396
1366 1363 1361 1359 1344 1337 1329 1337 1339 1340 1338 1333 1337 1335 1334 1330 1325 1326 1323 1321 1324 1324 1323 1324 1324 1321 1319 1320 1321 1323 1325 1328 1331 1333 1336 1340 1349 1356 1363 1369 1375 1380 1386 1391
1366 1363 1359 1354 1341 1340 1328 1324 1329 1332 1332 1328 1326 1326 1323 1321 1316 1315 1314 1312 1313 1315 1315 1316 1315 1312 1309 1308 1309 1312 1313 1316 1319 1321 1327 1335 1344 1350 1355 1364 1372 1375 1381 1387
1357 1355 1357 1344 1344 1343 1324 1327 1324 1323 1322 1321 1319 1318 1316 1315 1310 1305 1303 1302 1304 1305 1307 1307 1306 1304 1300 1298 1299 1302 1303 1306 1310 1314 1318 1328 1333 1342 1349 1358 1368 1377 1381 1387